CZ-3C R/B

Last updated on Mon Oct 06 2025 00:02:05 GMT+0000 (Coordinated Universal Time)

1 65487U 25196B 25278.10814567 .00018713 00000+0 27923-2 0 9993 2 65487 28.5254 8.5377 6965501 149.6929 281.6652 2.69994710 827

Satellite not in orbit

CZ-3C R/B